Weather observations for the past three days for
L O Simenstad Municipal Airport
Imperial (Metric)
Date Time (cdt) Wind (mph) Vis. (mi.) Weather Sky Cond. Temperature (ºF) Relative Humidity Wind Chill (°F) Heat Index (°F) Pressure Precipitation (in)
Air Dwpt 6 hour altimeter (in) sea level (mb) 1 hr 3 hr 6 hr
Max. Min.
15 03:35 Calm 10.00 Partly Cloudy SCT110 59 58.1 97% 30.07 0.0
15 03:10 Calm 10.00 Fair CLR 59.2 58.3 97% 30.07 0.0
15 02:55 Calm 10.00 Partly Cloudy SCT110 59.5 58.6 97% 30.06 0.0
15 02:35 Calm 10.00 Partly Cloudy SCT110 59.2 59 99% 30.05 0.0
15 02:15 Calm 10.00 Fair CLR 60.1 59 96% 30.06 0.0
15 01:55 Calm 10.00 Fair CLR 60.6 59.4 96% 30.06 0.0
15 01:35 E 3 10.00 Fair CLR 59.2 59.2 100% 30.07 0.0
15 01:15 Calm 10.00 Fair CLR 59.4 59.4 100% 30.07 0.0
15 00:55 Calm 10.00 Fair CLR 59.4 59.4 77.5 59.4 100% 30.08 0.0
15 00:35 Calm 10.00 Fair CLR 60.4 60.1 99% 30.08 0.0
15 00:15 Calm 10.00 Fair CLR 60.1 59.7 99% 30.08 0.0
14 23:55 Calm 10.00 Fair CLR 60.8 59.9 97% 30.09 0.0
14 23:35 Calm 10.00 Fair CLR 61.9 59.9 93% 30.09 0.0
14 23:15 Calm 10.00 Fair CLR 61.7 59.9 94% 30.08 0.0
14 22:55 Calm 10.00 Fair CLR 62.2 60.1 93% 30.08 0.0
14 22:35 Calm 10.00 Fair CLR 63.7 60.6 90% 30.07 0.0
14 22:15 Calm 10.00 Fair CLR 64.2 60.6 88% 30.08 0.0
14 21:55 Calm 10.00 Fair CLR 65.3 60.8 85% 30.08 0.0
14 21:35 Calm 10.00 Fair CLR 65.3 61 86% 30.07 0.0
14 21:15 Calm 10.00 Fair CLR 69.4 59.7 71% 30.07 0.0
14 20:55 Calm 10.00 Fair CLR 70 59 68% 30.08 0.0
14 20:35 Calm 10.00 Fair CLR 72.1 57.2 60% 30.07 0.0
14 20:15 SW 3 10.00 Fair CLR 74.5 54.9 51% 30.08 0.0
14 19:55 Calm 10.00 Fair CLR 75.7 50.7 42% 78 30.07 0.0
14 19:35 Calm 10.00 Fair CLR 76.3 53.1 45% 78 30.06 0.0
14 19:15 Calm 10.00 Fair CLR 77.4 50.5 39% 78 30.06 0.0
14 18:55 Calm 10.00 Partly Cloudy SCT065 75.6 52.9 79 73.9 45% 78 30.06 0.0
14 18:35 SW 5 10.00 Fair CLR 78.4 51.6 39% 79 30.06 0.0
14 18:15 Calm 10.00 Partly Cloudy SCT065 78.1 50.5 38% 79 30.07 0.0
14 17:55 NW 3 10.00 Fair CLR 75.2 52.5 45% 78 30.07 0.0
14 17:35 W 3 10.00 Fair CLR 78.6 52.3 40% 79 30.07 0.0
14 17:15 Calm 10.00 Fair CLR 78.4 53.4 42% 79 30.07 0.0
14 16:55 Calm 10.00 Fair CLR 75.4 54.3 48% 78 30.08 0.0
14 16:35 Calm 10.00 Fair CLR 75.6 50.9 42% 78 30.09 0.0
14 16:15 NW 3 10.00 Fair CLR 76.3 53.4 45% 78 30.09 0.0
14 15:55 NW 3 10.00 Partly Cloudy SCT055 77.7 53.1 42% 79 30.09 0.0
14 15:35 NE 5 10.00 Mostly Cloudy BKN055 76.5 53.8 45% 78 30.09 0.0
14 15:15 W 6 10.00 Mostly Cloudy BKN055 77.2 53.6 44% 78 30.1 0.0
14 14:55 W 6 10.00 Fair CLR 77.9 53.8 43% 79 30.1 0.0
14 14:35 NW 7 10.00 Partly Cloudy SCT050 77.2 54.1 45% 79 30.1 0.0
14 14:15 W 8 10.00 Partly Cloudy SCT050 77 54.3 46% 78 30.1 0.0
14 13:55 Calm 10.00 Partly Cloudy SCT050 SCT065 75.9 53.4 46% 78 30.1 0.0
14 13:35 NW 5 10.00 Partly Cloudy SCT049 SCT065 75.7 54 47% 78 30.11 0.0
14 13:15 W 7 10.00 Mostly Cloudy BKN049 75.4 56.1 51% 78 30.12 0.0
14 12:55 Calm 10.00 Partly Cloudy SCT047 75 54.1 75 57.6 48% 78 30.11 0.0
14 12:35 NW 5 10.00 Partly Cloudy SCT045 74.3 54.1 50% 30.11 0.0
14 12:15 NW 7 10.00 Fair CLR 74.1 54.9 51% 30.11 0.0
14 11:55 N 5 10.00 Fair CLR 73.4 54.7 52% 30.12 0.0
14 11:35 W 8 10.00 Partly Cloudy SCT042 73 54.3 52% 30.12 0.0
14 11:15 NW 8 10.00 Partly Cloudy SCT042 72.5 55 54% 30.12 0.0
14 10:55 N 6 10.00 Fair CLR 71.8 55.4 56% 30.11 0.0
14 10:35 NW 7 10.00 Fair CLR 71.6 57 60% 30.11 0.0
14 10:15 NW 7 10.00 Fair CLR 70.9 57.4 63% 30.11 0.0
14 09:55 N 6 10.00 Fair CLR 69.8 55.9 62% 30.11 0.0
14 09:35 NW 8 10.00 Fair CLR 69.3 56.3 64% 30.11 0.0
14 09:15 NW 6 10.00 Fair CLR 68.4 56.7 66% 30.11 0.0
14 08:55 NW 5 10.00 Fair CLR 66.7 57.7 73% 30.11 0.0
14 08:35 NW 5 10.00 Fair CLR 65.3 57 75% 30.11 0.0
14 08:15 W 5 10.00 Fair CLR 63.9 56.7 78% 30.1 0.0
14 07:55 NW 3 10.00 Fair CLR 62.2 56.3 81% 30.1 0.0
14 07:35 Calm 10.00 Fair CLR 60.8 56.5 86% 30.09 0.0
14 07:15 Calm 10.00 Fair CLR 59 56.7 92% 30.09 0.0
14 06:55 Calm 10.00 Fair CLR 57.4 57.4 63.9 52.2 100% 30.08 0.0
14 06:35 Calm 10.00 Fair CLR 55.6 55.6 100% 30.07 0.0
14 06:15 Calm 10.00 Partly Cloudy SCT001 53.6 53.6 100% 30.07 0.0
14 05:55 Calm 10.00 Fair CLR 52.3 52.3 100% 30.07 0.0
14 05:35 Calm 10.00 Fair CLR 53.1 53.1 100% 30.06 0.0
14 05:15 Calm 10.00 Fair CLR 53.4 53.4 100% 30.06 0.0
14 04:55 Calm 10.00 Fair CLR 52.9 52.9 100% 30.05 0.0
14 04:35 Calm 10.00 Fair CLR 53.4 53.4 100% 30.04 0.0
14 04:15 Calm 10.00 Fair CLR 54.5 54.5 100% 30.04 0.0
14 03:55 Calm 10.00 Fair CLR 54.5 54.5 100% 30.03 0.0
14 03:35 Calm 10.00 Fair CLR 53.8 53.8 100% 30.02 0.0
14 03:15 Calm 10.00 Fair CLR 55.2 54.9 99% 30.01 0.0
14 02:55 Calm 10.00 Fair CLR 55.8 54.7 96% 30.01 0.0
14 02:35 Calm 10.00 Fair CLR 56.3 55.4 97% 30.01 0.0
14 02:15 SE 3 10.00 Fair CLR 56.7 54.7 93% 30 0.0
14 01:55 Calm 10.00 Fair CLR 56.1 54.7 95% 29.99 0.0
14 01:35 Calm 10.00 Fair CLR 59.5 54.3 83% 29.99 0.0
14 01:15 Calm 10.00 Fair CLR 59.2 54 83% 29.98 0.0
14 00:55 Calm 10.00 Fair CLR 63.3 51.3 80.1 62.4 65% 29.97 0.0
14 00:35 Calm 10.00 Fair CLR 65.3 51.1 60% 29.97 0.0
14 00:15 N 3 10.00 Fair CLR 66.4 51.1 58% 29.96 0.0
13 23:55 N 6 10.00 Fair CLR 68 50.7 54% 29.96 0.0
13 23:35 NW 6 10.00 Fair CLR 68.7 50.7 53% 29.95 0.0
13 23:15 NW 7 10.00 Fair CLR 68.9 50.4 52% 29.95 0.0
13 22:55 NW 6 10.00 Fair CLR 68.7 51.3 54% 29.94 0.0
13 22:35 NW 5 10.00 Fair CLR 67.5 54 62% 29.94 0.0
13 22:15 N 3 10.00 Fair CLR 63.3 56.5 79% 29.93 0.0
13 21:55 Calm 10.00 Fair CLR 64 57.9 81% 29.91 0.0
13 21:35 Calm 10.00 Fair CLR 68.7 54.9 61% 29.9 0.0
13 21:15 Calm 10.00 Fair CLR 69.3 52.9 56% 29.89 0.0
13 20:55 SW 5 10.00 Fair CLR 70.7 52.2 52% 29.89 0.0
13 20:35 Calm 10.00 Fair CLR 75.7 48.2 38% 78 29.89 0.0
13 20:15 Calm 10.00 Fair CLR 77 48.7 37% 78 29.9 0.0
13 19:55 W 5 10.00 Fair CLR 77.7 48.9 36% 78 29.9 0.0
13 19:35 W 5 10.00 Fair CLR 78.6 47.5 33% 79 29.9 0.0
13 19:15 W 8 10.00 Fair CLR 79.9 46.2 31% 79 29.9 0.0
13 18:55 W 9 10.00 Fair CLR 80.2 45.5 82 78.1 29% 79 29.9 0.0
13 18:35 W 10 10.00 Fair CLR 80.6 45.3 29% 79 29.9 0.0
13 18:15 W 9 10.00 Fair CLR 81 45.5 29% 80 29.9 0.0
13 17:55 W 13 G 17 10.00 Fair CLR 81.5 43.3 26% 80 29.9 0.0
13 17:35 W 12 G 17 10.00 Fair CLR 81.5 42.8 25% 80 29.9 0.0
13 17:15 W 13 G 18 10.00 Fair CLR 81.9 44.2 27% 80 29.89 0.0
13 16:55 W 13 G 18 10.00 Fair CLR 81.7 45.1 28% 80 29.89 0.0
13 16:35 NW 10 G 21 10.00 Fair CLR 81.7 46.2 29% 80 29.89 0.0
13 16:15 NW 14 G 21 10.00 Fair CLR 81.7 44.8 27% 80 29.88 0.0
13 15:55 NW 15 G 22 10.00 Fair CLR 81.9 46.6 29% 80 29.88 0.0
13 15:35 NW 14 G 21 10.00 Fair CLR 81.7 47.3 30% 80 29.88 0.0
13 15:15 NW 12 G 17 10.00 Fair CLR 81.7 50.4 34% 81 29.88 0.0
13 14:55 W 14 G 20 10.00 Fair CLR 81 50.4 35% 80 29.88 0.0
13 14:35 W 10 G 16 10.00 Fair CLR 81 50.2 34% 80 29.88 0.0
13 14:15 W 13 G 18 10.00 Fair CLR 80.6 50.7 35% 80 29.88 0.0
13 13:55 W 13 G 17 10.00 Fair CLR 79.9 52 38% 80 29.89 0.0
13 13:35 NW 7 10.00 Fair CLR 79.5 54.1 42% 80 29.89 0.0
13 13:15 W 10 10.00 Fair CLR 78.8 55.2 44% 79 29.9 0.0
13 12:55 W 10 10.00 Fair CLR 78.1 56.3 78.3 66.2 47% 79 29.9 0.0
13 12:35 W 12 G 18 10.00 Fair CLR 77.9 58.3 51% 79 29.91 0.0
13 12:15 W 13 10.00 Fair CLR 77 57.6 51% 79 29.91 0.0
13 11:55 W 9 G 17 10.00 Fair CLR 76.1 58.3 54% 78 29.91 0.0
13 11:35 W 10 10.00 Fair CLR 75.6 57.7 54% 78 29.9 0.0
13 11:15 NW 9 10.00 Fair CLR 75.7 60.1 58% 78 29.88 0.0
13 10:55 W 7 10.00 Fair CLR 75 61.3 63% 77 29.88 0.0
13 10:35 W 5 10.00 Fair CLR 73.2 62.6 69% 29.87 0.0
13 10:15 W 5 10.00 Fair CLR 72 63.9 76% 29.86 0.0
13 09:55 W 5 10.00 Fair CLR 69.6 64 83% 29.86 0.0
13 09:35 W 7 10.00 Fair CLR 69.3 64.2 84% 29.85 0.0
13 09:15 SW 3 10.00 Fair CLR 68.5 64.8 88% 29.85 0.0
13 08:55 SW 5 10.00 Fair CLR 68 64.6 89% 29.85 0.0
13 08:35 W 3 10.00 Fair CLR 68 64.8 89% 29.83 0.0
13 08:15 Calm 10.00 Fair CLR 68 65.5 92% 29.82 0.0
13 07:55 W 5 10.00 Fair CLR 67.3 66.7 98% 29.81 0.0
13 07:35 W 3 10.00 Fair CLR 66.6 66.6 100% 29.8 0.0
13 07:15 Calm 10.00 Fair CLR 66.2 66.2 100% 29.78 0.0
13 06:55 Calm 10.00 Fair CLR 0 0 0% 29.76 0.0
13 06:35 Calm 4.00 Partly Cloudy SCT003 0 0 0% 29.76 0.0
13 06:15 Calm 0.50 Mostly Cloudy BKN003 0 0 0% 29.75 0.0
13 05:55 Calm 0.25 Overcast OVC003 0 0 0% 29.74 0.0
13 05:35 Calm 0.25 Sky Obscured VV002 0 0 0% 29.74 0.0
13 05:15 Calm 1.00 Sky Obscured VV007 61.2 61.2 100% 29.72 0.0
13 04:55 Calm 10.00 Fair CLR 62.8 62.8 100% 29.73 0.0
13 04:35 Calm 10.00 Fair CLR 63.7 63.7 100% 29.72 0.0
13 04:15 S 3 10.00 Fair CLR 64 64 100% 29.72 0.0
13 03:55 S 6 10.00 Fair CLR 65.8 65.8 100% 29.71 0.0
13 03:35 S 6 10.00 Fair CLR 65.5 65.5 100% 29.72 0.0
13 03:15 S 6 10.00 Fair CLR 66 65.8 99% 29.71 0.0
13 02:55 S 9 10.00 Fair CLR 67.3 66.2 96% 29.71 0.0
13 02:35 S 8 10.00 Fair CLR 67.3 66.2 96% 29.71 0.0
13 02:15 S 6 10.00 Fair CLR 67.8 66 94% 29.72 0.0
13 01:55 Calm 10.00 Fair CLR 68 66.2 94% 29.71 0.0
13 01:35 SW 5 10.00 Partly Cloudy SCT095 SCT120 68.9 66.4 92% 29.71 0.0
13 01:15 S 8 10.00 Mostly Cloudy BKN095 BKN120 68.9 66.6 92% 29.71 0.0
13 00:55 S 9 10.00 Mostly Cloudy BKN095 BKN110 69.1 66.7 77 67.1 92% 29.71 0.0 0.75
13 00:35 S 7 10.00 Mostly Cloudy SCT095 BKN120 68.5 66.7 94% 29.71 0.0
13 00:15 S 7 10.00 Mostly Cloudy SCT095 BKN110 68.7 66.7 93% 29.71 0.0
12 23:55 S 13 G 20 10.00 Mostly Cloudy SCT019 SCT034 BKN095 68.4 66.6 94% 29.71 0.0 0.26
12 23:35 S 17 4.00 Overcast SCT027 BKN075 OVC120 67.6 67.6 100% 29.71 0.0 0.26
12 23:15 S 9 7.00 Overcast SCT026 BKN050 OVC110 68 68 100% 29.74 0.0 0.1
12 22:55 NE 3 5.00 Overcast SCT020 BKN050 OVC090 68.7 66.9 94% 29.76 0.0 0.26
12 22:35 S 14 G 26 10.00 Mostly Cloudy SCT041 SCT080 BKN090 68 65.5 92% 29.7 0.0 0.08
12 22:15 S 15 G 26 10.00 Mostly Cloudy SCT043 SCT080 BKN090 69.4 64 83% 29.74 0.0 0.05
12 21:55 SE 10 7.00 Overcast SCT033 SCT050 OVC075 67.1 65.8 96% 29.75 0.0 0.23 0.23
12 21:35 S 12 G 16 10.00 Overcast SCT060 OVC085 67.8 65.7 93% 29.74 0.0 0.19
12 21:15 E 5 G 20 5.00 Overcast SCT025 BKN060 OVC100 68 61.7 80% 29.77 0.0 0.17
12 20:55 NW 13 10.00 Overcast SCT047 SCT070 OVC110 72.5 68.2 86% 29.8 0.0
12 20:35 SW 8 10.00 Mostly Cloudy SCT047 SCT070 BKN110 74.5 67.3 78% 29.72 0.0
12 20:15 S 9 10.00 Partly Cloudy SCT110 75 66.7 76% 76 29.68 0.0
12 19:55 S 9 10.00 Fair CLR 75.6 66.2 73% 77 29.69 0.0
12 19:35 S 9 10.00 Fair CLR 76.1 65.7 70% 78 29.69 0.0
12 19:15 S 13 G 18 10.00 Fair CLR 76.1 65.3 69% 78 29.69 0.0
12 18:55 S 12 G 20 10.00 Fair CLR 77 64.9 79.2 67.6 66% 79 29.67 0.0
12 18:35 S 16 G 23 10.00 Fair CLR 77 65.5 68% 79 29.68 0.0
12 18:15 S 14 G 20 10.00 Fair CLR 79.2 65.8 64% 81 29.69 0.0
12 17:55 S 15 G 22 10.00 Fair CLR 78.8 65.8 65% 81 29.7 0.0
12 17:35 S 16 G 22 10.00 Fair CLR 77.7 65.3 66% 80 29.72 0.0
12 17:15 S 17 G 21 10.00 Fair CLR 77.5 64.9 65% 79 29.73 0.0
12 16:55 S 14 G 18 10.00 Fair CLR 77.4 64.2 64% 79 29.74 0.0
12 16:35 S 12 G 18 10.00 Fair CLR 76.1 64 66% 78 29.76 0.0
12 16:15 S 10 G 18 10.00 Partly Cloudy SCT090 75.4 64.6 69% 77 29.76 0.0
12 15:55 S 10 G 16 10.00 Partly Cloudy SCT090 76.1 64.8 68% 78 29.77 0.0
12 15:35 S 12 G 16 10.00 Partly Cloudy SCT090 76.6 65.1 68% 78 29.77 0.0
12 15:15 S 13 10.00 Partly Cloudy SCT080 76.1 63.7 66% 78 29.78 0.0
12 14:55 S 13 G 22 10.00 Partly Cloudy SCT080 SCT095 75 64.8 71% 77 29.78 0.0
12 14:35 S 18 G 23 10.00 Partly Cloudy SCT080 73.9 63.3 70% 29.78 0.0
12 14:15 S 13 G 18 10.00 Fair CLR 72.5 63.1 73% 29.79 0.0
12 13:55 S 10 G 17 10.00 Fair CLR 69.8 62.6 78% 29.78 0.0
12 13:35 S 14 G 20 10.00 Fair CLR 69.1 62.2 79% 29.79 0.0
12 13:15 S 8 10.00 Fair CLR 67.8 61.9 81% 29.78 0.0
12 12:55 S 10 10.00 Partly Cloudy SCT090 68 61.9 68 61.7 81% 29.79 0.0 0.06
12 12:35 S 7 G 16 10.00 Fair CLR 67.1 61.5 82% 29.78 0.0
12 12:15 S 8 10.00 Fair CLR 67.5 61 80% 29.79 0.0
12 11:55 S 13 G 18 10.00 Fair CLR 67.5 59.9 77% 29.81 0.0
12 11:35 S 13 10.00 Fair CLR 67.1 58.5 74% 29.81 0.0
12 11:15 S 14 10.00 Partly Cloudy SCT075 SCT085 SCT110 66.2 57.9 75% 29.8 0.0
12 10:55 S 14 10.00 Mostly Cloudy SCT032 SCT050 BKN110 65.1 58.1 78% 29.81 0.0 0.01
12 10:35 S 8 10.00 Partly Cloudy SCT032 SCT038 SCT070 64.6 58.1 80% 29.82 0.0 0.01
12 10:15 SE 8 10.00 Partly Cloudy SCT048 SCT050 SCT110 64.4 57.7 79% 29.82 0.0
12 09:55 SE 7 10.00 Mostly Cloudy SCT048 BKN110 63.7 60.1 88% 29.83 0.0 0.01 0.05
12 09:35 SE 5 10.00 Partly Cloudy SCT085 SCT120 62.8 62.8 100% 29.84 0.0 0.01
12 09:15 E 7 10.00 Overcast SCT025 BKN055 OVC090 62.1 62.1 100% 29.86 0.0 0.01
12 08:55 NW 3 7.00 Overcast SCT050 SCT065 OVC090 61.7 61.2 98% 29.89 0.0 0.04
12 08:35 S 6 10.00 Overcast SCT047 SCT070 OVC100 62.1 60.6 95% 29.86 0.0 0.01
12 08:15 Calm 7.00 Overcast SCT050 SCT070 OVC095 61.7 58.8 90% 29.85 0.0 0.01
12 07:55 W 5 10.00 Overcast BKN095 OVC120 64.8 57.2 77% 29.83 0.0
12 07:35 E 6 10.00 Mostly Cloudy BKN120 63.5 56.7 79% 29.8 0.0
12 07:15 S 9 10.00 Partly Cloudy SCT120 63.7 57.2 80% 29.81 0.0
12 06:55 S 7 10.00 Fair CLR 62.8 57 62.8 51.6 82% 29.82 0.0
12 06:35 S 5 10.00 Fair CLR 59.7 57 91% 29.83 0.0
12 06:15 Calm 10.00 Fair CLR 54.9 54.9 100% 29.84 0.0
12 05:55 Calm 10.00 Fair CLR 54.5 54.5 100% 29.83 0.0
12 05:35 E 5 10.00 Fair CLR 53.1 53.1 100% 29.83 0.0
12 05:15 E 5 10.00 Fair CLR 51.8 51.8 100% 29.84 0.0
12 04:55 Calm 10.00 Fair CLR 52.7 52.7 100% 29.84 0.0
12 04:35 Calm 10.00 Fair CLR 54.5 54.5 100% 29.84 0.0
12 04:15 Calm 10.00 Fair CLR 54 54 100% 29.84 0.0
Date Time (cdt) Wind (mph) Vis. (mi.) Weather Sky Cond. Air Dwpt Max. Min. Relative Humidity Wind Chill (°F) Heat Index (°F) altimeter (in) sea level (mb) 1 hr 3 hr 6 hr
6 hour
Temperature (ºF) Pressure Precipitation (in)